Regional Weather Roundup
Issued by NWS Cleveland, OH

Home | Current Version | Previous Version | Graphics & Text | Print | Product List | Glossary On
Versions: 1 2 3 4 5 6 7 8 9 10 11 12 13 14 15 16 17 18 19 20 21 22 23 24 25 26 27 28 29 30 31 32 33 34 35 36 37 38 39 40 41 42 43 44 45 46 47 48 49 50
008
ASUS41 KCLE 282312
RWRCLE
OHIO REGIONAL WEATHER ROUNDUP
NATIONAL WEATHER SERVICE WILMINGTON, OH
700 PM EDT WED SEP 28 2016

NOTE: "FAIR" INDICATES FEW OR NO CLOUDS BELOW 12,000 FEET WITH NO
SIGNIFICANT WEATHER AND/OR OBSTRUCTIONS TO VISIBILITY.

OHZ001>008-015>018-024>027-034-035-043-044-290000-
   NORTHWEST OHIO

CITY           SKY/WX    TMP DP  RH WIND       PRES   REMARKS
DEFIANCE       HVY RAIN  57  53  86 W5        29.94R FOG
FINDLAY        CLOUDY    60  53  77 CALM      29.92R
TOLEDO EXPRESS CLOUDY    60  55  83 NE9       29.92R
TOLEDO EXEC    CLOUDY    62  56  80 E7        29.94R
LIMA           CLOUDY    59  56  89 NE3       29.91R
$$

OHZ009>014-019>023-028>033-038-089-290000-
   NORTHEAST OHIO

CITY           SKY/WX    TMP DP  RH WIND       PRES   REMARKS
CLE-HOPKINS    LGT RAIN  63  55  75 CALM      29.97R
CLE-LAKEFRONT  CLOUDY    65  54  67 CALM      29.94R
CUY CO. ARPT   CLOUDY    64  59  82 CALM      29.95S
LORAIN-ELYRIA  LGT RAIN  58  54  86 SW5       29.97R
ASHTABULA      MOCLDY    61  60  97 CALM      29.97S
AKRON-CANTON   LGT RAIN  59  55  87 N9        29.93F
WOOSTER        LGT RAIN  57  55  93 NW5       29.96S FOG
MANSFIELD      LGT RAIN  56  55  97 E6        29.95S FOG
YOUNGSTOWN     MOCLDY    66  54  65 E9        29.95R
$$

OHZ042-051>053-060>062-070>072-077>081-290000-
  SOUTHWEST OHIO

CITY           SKY/WX    TMP DP  RH WIND       PRES   REMARKS
CINC-COVINGTON HVY RAIN  55  52  89 W9G28     29.93R FOG
CINC-LUNKEN    CLOUDY    59  58  96 CALM      29.91R
HAMILTON       LGT RAIN  59  57  93 S3        29.91R
DAYTON         MOCLDY    57  54  89 SW3       29.92R
WRIGHT-PAT AFB MOCLDY    59  57  92 S5        29.90R
DAYTON GENERAL CLOUDY    58  54  86 S5        29.90R
WILMINGTON     FAIR      58  56  93 W6        29.90R
$$

OHZ036-037-039>041-045>050-054>059-063>069-073>076-082>088-290000-
  CENTRAL AND SOUTHEAST OHIO

CITY           SKY/WX    TMP DP  RH WIND       PRES   REMARKS
COLUMBUS       RAIN      57  57 100 E9        29.91S
OSU AIRPORT    LGT RAIN  57  57 100 E3        29.91R
BOLTON FIELD   CLOUDY    57  57 100 SE5       29.90R
RICKENBACK AFB RAIN      56  55  99 SE6       29.91R
NEWARK         RAIN      57  56  96 NE3       29.95R FOG
MARION         LGT RAIN  56  54  93 SE15      29.91F
LANCASTER      LGT RAIN  57  56  96 E5        29.93F FOG
ZANESVILLE     CLOUDY    57  55  93 W9        29.96R
NEW PHILLY     CLOUDY    59  55  87 N3        29.92F
$$




USA.gov is the U.S. government's official web portal to all federal, state and local government web resources and services.